| time (UTC) | temp C | wind direction | speed KPH | gust KPH | rain 1hr cm | rain 24hr cm | rain mn cm | humidity % | barometer mb |
| 20260506131537 | 11 | 150 | 20.9 | 38.6 | 0.00 | 0.00 | 0.00 | 89 | 1016.6 |
| 20260506130039 | 11 | 162 | 22.5 | 38.6 | 0.00 | 0.00 | 0.00 | 90 | 1016.7 |
| 20260506124537 | 11 | 147 | 22.5 | 38.6 | 0.00 | 0.00 | 0.00 | 89 | 1017.0 |
| 20260506123038 | 11 | 153 | 32.2 | 43.5 | 0.00 | 0.00 | 0.00 | 89 | 1016.9 |
| 20260506121538 | 11 | 187 | 25.7 | 40.2 | 0.00 | 0.00 | 0.00 | 90 | 1016.8 |
| 20260506120038 | 11 | 161 | 25.7 | 41.8 | 0.00 | 0.00 | 0.00 | 89 | 1016.5 |
| 20260506114540 | 11 | 138 | 25.7 | 38.6 | 0.00 | 0.00 | 0.00 | 90 | 1016.2 |
| 20260506113037 | 11 | 150 | 24.1 | 38.6 | 0.00 | 0.00 | 0.00 | 89 | 1016.3 |
| 20260506111535 | 11 | 153 | 25.7 | 41.8 | 0.00 | 0.00 | 0.00 | 90 | 1016.2 |
| 20260506110043 | 11 | 148 | 30.6 | 48.3 | 0.00 | 0.00 | 0.00 | 90 | 1016.1 |
| 20260506104605 | 11 | 172 | 30.6 | 46.7 | 0.00 | 0.00 | 0.00 | 90 | 1015.9 |
| 20260506103041 | 11 | 165 | 32.2 | 46.7 | 0.00 | 0.00 | 0.00 | 90 | 1015.7 |
| 20260506101541 | 11 | 162 | 32.2 | 46.7 | 0.00 | 0.00 | 0.00 | 90 | 1015.6 |
| 20260506100042 | 11 | 155 | 29.0 | 46.7 | 0.00 | 0.00 | 0.00 | 89 | 1015.5 |
| 20260506094538 | 11 | 167 | 27.4 | 41.8 | 0.00 | 0.00 | 0.00 | 90 | 1015.5 |
| 20260506093037 | 11 | 160 | 29.0 | 45.1 | 0.00 | 0.00 | 0.00 | 89 | 1015.3 |
| 20260506091538 | 11 | 173 | 29.0 | 43.5 | 0.00 | 0.00 | 0.00 | 89 | 1015.3 |
| 20260506090044 | 11 | 141 | 32.2 | 49.9 | 0.00 | 0.00 | 0.00 | 89 | 1015.2 |
| 20260506084538 | 11 | 155 | 33.8 | 49.9 | 0.00 | 0.00 | 0.00 | 89 | 1015.1 |
| 20260506083042 | 11 | 149 | 30.6 | 46.7 | 0.00 | 0.00 | 0.00 | 89 | 1015.2 |
| 20260506081541 | 11 | 165 | 30.6 | 49.9 | 0.00 | 0.00 | 0.00 | 89 | 1015.1 |
| 20260506073037 | 12 | 158 | 29.0 | 45.1 | 0.00 | 0.00 | 0.00 | 88 | 1014.7 |
| 20260506071537 | 12 | 163 | 30.6 | 45.1 | 0.00 | 0.00 | 0.00 | 89 | 1014.6 |
| 20260506061537 | 12 | 146 | 29.0 | 45.1 | 0.00 | 0.00 | 0.00 | 86 | 1014.5 |
| 20260506044539 | 13 | 169 | 19.3 | 33.8 | 0.00 | 0.00 | 0.00 | 83 | 1013.9 |
| 20260506043047 | 13 | 161 | 20.9 | 38.6 | 0.00 | 0.00 | 0.00 | 83 | 1013.8 |
| 20260506041539 | 13 | 171 | 20.9 | 37.0 | 0.00 | 0.00 | 0.00 | 82 | 1013.6 |
| 20260506040046 | 13 | 162 | 22.5 | 35.4 | 0.00 | 0.00 | 0.00 | 82 | 1013.5 |
| 20260506034538 | 13 | 148 | 22.5 | 35.4 | 0.00 | 0.00 | 0.00 | 82 | 1013.3 |
| 20260506033039 | 14 | 147 | 25.7 | 40.2 | 0.00 | 0.00 | 0.00 | 83 | 1013.2 |
| 20260506031539 | 14 | 138 | 25.7 | 43.5 | 0.00 | 0.00 | 0.00 | 83 | 1013.1 |
| 20260506030037 | 14 | 178 | 20.9 | 30.6 | 0.00 | 0.00 | 0.00 | 82 | 1013.0 |
| 20260506024543 | 14 | 142 | 25.7 | 41.8 | 0.00 | 0.00 | 0.00 | 82 | 1013.0 |
| 20260506023035 | 14 | 163 | 27.4 | 40.2 | 0.00 | 0.00 | 0.00 | 83 | 1013.2 |
| 20260506021551 | 14 | 156 | 24.1 | 37.0 | 0.00 | 0.00 | 0.00 | 82 | 1013.1 |
| 20260506020038 | 15 | 160 | 22.5 | 32.2 | 0.00 | 0.00 | 0.00 | 82 | 1013.1 |
| 20260506014550 | 15 | 167 | 19.3 | 32.2 | 0.00 | 0.00 | 0.00 | 82 | 1013.1 |
| 20260506013038 | 15 | 182 | 17.7 | 33.8 | 0.00 | 0.00 | 0.00 | 81 | 1013.1 |
| 20260506011544 | 15 | 167 | 19.3 | 29.0 | 0.00 | 0.00 | 0.00 | 81 | 1013.1 |
| 20260506010047 | 16 | 169 | 19.3 | 32.2 | 0.00 | 0.00 | 0.00 | 78 | 1013.1 |
| 20260506004537 | 16 | 180 | 20.9 | 33.8 | 0.00 | 0.00 | 0.00 | 79 | 1013.1 |
| 20260506003038 | 16 | 180 | 19.3 | 32.2 | 0.00 | 0.00 | 0.00 | 80 | 1013.1 |
| 20260506001537 | 15 | 202 | 22.5 | 33.8 | 0.00 | 0.00 | 0.00 | 79 | 1013.3 |
| 20260506000039 | 16 | 199 | 19.3 | 32.2 | 0.00 | 0.00 | 0.00 | 80 | 1013.4 |
| 20260505234602 | 15 | 171 | 19.3 | 32.2 | 0.00 | 0.00 | 0.00 | 81 | 1013.5 |
| 20260505233038 | 16 | 163 | 19.3 | 33.8 | 0.00 | 0.00 | 0.00 | 81 | 1013.7 |
| 20260505231539 | 15 | 180 | 19.3 | 33.8 | 0.00 | 0.00 | 0.00 | 81 | 1013.7 |
| 20260505230042 | 15 | 196 | 22.5 | 35.4 | 0.00 | 0.00 | 0.00 | 81 | 1013.7 |
| 20260505224538 | 15 | 198 | 20.9 | 33.8 | 0.00 | 0.00 | 0.00 | 82 | 1013.8 |
| 20260505223037 | 15 | 182 | 20.9 | 32.2 | 0.00 | 0.00 | 0.00 | 80 | 1014.0 |
| 20260505221537 | 15 | 184 | 19.3 | 33.8 | 0.00 | 0.00 | 0.00 | 81 | 1014.2 |
| 20260505220037 | 16 | 191 | 17.7 | 30.6 | 0.00 | 0.00 | 0.00 | 81 | 1014.2 |
| 20260505214550 | 16 | 198 | 17.7 | 30.6 | 0.00 | 0.00 | 0.00 | 81 | 1014.2 |
| 20260505213037 | 16 | 178 | 17.7 | 27.4 | 0.00 | 0.00 | 0.00 | 80 | 1014.3 |
| 20260505211545 | 15 | 178 | 17.7 | 32.2 | 0.00 | 0.00 | 0.00 | 79 | 1014.4 |
| 20260505210038 | 16 | 167 | 14.5 | 30.6 | 0.00 | 0.00 | 0.00 | 80 | 1014.5 |
| 20260505204538 | 15 | 196 | 16.1 | 27.4 | 0.00 | 0.00 | 0.00 | 81 | 1014.6 |
| 20260505203049 | 15 | 209 | 14.5 | 22.5 | 0.00 | 0.00 | 0.00 | 81 | 1014.6 |
| 20260505201538 | 15 | 206 | 14.5 | 27.4 | 0.00 | 0.00 | 0.00 | 82 | 1014.5 |
| 20260505200038 | 15 | 204 | 12.9 | 27.4 | 0.00 | 0.00 | 0.00 | 81 | 1014.6 |
| 20260505194542 | 15 | 205 | 16.1 | 27.4 | 0.00 | 0.00 | 0.00 | 84 | 1014.6 |
| 20260505193033 | 15 | 213 | 16.1 | 27.4 | 0.00 | 0.00 | 0.00 | 83 | 1014.7 |
| 20260505191543 | 14 | 213 | 16.1 | 27.4 | 0.00 | 0.00 | 0.00 | 83 | 1014.8 |
| 20260505190042 | 14 | 159 | 14.5 | 24.1 | 0.00 | 0.00 | 0.00 | 85 | 1014.7 |
| 20260505184547 | 13 | 191 | 14.5 | 25.7 | 0.00 | 0.00 | 0.00 | 85 | 1014.8 |
| 20260505183042 | 13 | 187 | 12.9 | 24.1 | 0.00 | 0.00 | 0.00 | 86 | 1014.8 |
| 20260505181534 | 13 | 179 | 12.9 | 24.1 | 0.00 | 0.00 | 0.00 | 87 | 1014.7 |
| 20260505180033 | 13 | 186 | 12.9 | 24.1 | 0.00 | 0.00 | 0.00 | 87 | 1014.6 |
| 20260505174540 | 13 | 214 | 14.5 | 22.5 | 0.00 | 0.00 | 0.00 | 88 | 1014.5 |
| 20260505173037 | 13 | 181 | 12.9 | 27.4 | 0.00 | 0.00 | 0.00 | 89 | 1014.5 |
| 20260505171537 | 12 | 192 | 12.9 | 24.1 | 0.00 | 0.00 | 0.00 | 90 | 1014.5 |
| 20260505170039 | 12 | 190 | 14.5 | 27.4 | 0.00 | 0.00 | 0.00 | 91 | 1014.4 |
| 20260505164539 | 12 | 167 | 16.1 | 25.7 | 0.00 | 0.00 | 0.00 | 91 | 1014.5 |
| 20260505163104 | 12 | 186 | 14.5 | 24.1 | 0.00 | 0.00 | 0.00 | 91 | 1014.4 |
| 20260505161540 | 12 | 177 | 12.9 | 25.7 | 0.00 | 0.00 | 0.00 | 92 | 1014.3 |
| 20260505153044 | 11 | 158 | 12.9 | 27.4 | 0.00 | 0.00 | 0.00 | 92 | 1014.2 |
| 20260505151539 | 11 | 196 | 17.7 | 30.6 | 0.00 | 0.00 | 0.00 | 91 | 1014.1 |